Погода в Пудоже

Россия / Республика Карелия     61°48′21″N   36°31′58″E
темп.,
°C
ветер,
м/с
пор.,
м/с
влажн.,
%
обл.,
%
осадки,
мм/ч
давл.,
гПа
погр.,
м
15 августа, пн
пн1500:00+14юв11617 0.0 102210
03:00+13юв11645 0.0 102210
06:00+14вюв11655 0.0 102312
09:00+22ююв12525 0.0 1023344
12:00+26ююз124365 0.0 10231454
15:00+27юз233980 0.0 10221911
18:00+26ю01495 0.0 1021312
21:00+20юв226981 0.0 102243
16 августа, вт
вт1600:00+19ююв267444 0.0 1022118
03:00+16ююв23856 0.0 102344
06:00+17ююв258290 0.0 1023116
09:00+22ю256697 0.0 1023294
12:00+26ю3449100 0.0 1023799
15:00+28ююз343992 0.0 10221824
18:00+26ю135192 0.0 1021111
21:00+20ююв277042 0.0 1022135
17 августа, ср
ср1700:00+19ююв277465 0.0 1022127
03:00+19ююв287046 0.0 1022206
06:00+18ююв257691 0.0 1021128
09:00+23ю255735 0.0 1021363
12:00+27ююз34423 0.0 10211150
15:00+29юз333612 0.0 10202173
18:00+26ююз244717 0.0 1020370
21:00+20ююв226822 0.0 102029
18 августа, чт
чт1800:00+18ююв23735 0.0 102048
03:00+17ююв227914 0.0 102139
06:00+17ююв2376100 0.0 102164
09:00+23ю2357100 0.0 1021363
12:00+27ю234396 0.0 10211322
15:00+28ююз233614 0.0 10212182
18:00+27зюз12469 0.0 1021145
21:00+20вюв11676 0.0 102112
19 августа, пт
пт1900:00+18юв227859 0.0 102223
03:00+17юв22825 0.0 102321
06:00+17юв23825 0.0 102366
09:00+24ююв24585 0.0 1024520
12:00+27ю23445 0.0 10231524
15:00+29ю234078 0.0 10232223
18:00+25вюв235773 0.0 1023142
21:00+21юв266862 0.0 1024118